Location: Newark
(34.5992°S, 58.3747°W)
Time: 09:37:16
(UTC+00:00)

STARLINK 1023 - Pass Details

Date: 09 December 2019
Orbit: 345 x 354 km, 53.0° (Epoch: 17 January)

Event Time Altitude Azimuth Distance (km) Brightness Sun altitude
Rises 23:29:11 0° 246° (WSW) 2,286 9.1 -6.3°
Reaches altitude 10° 23:31:56 10° 272° (W) 1,437 6.7 -6.8°
Maximum altitude 23:33:43 14° 306° (NW) 1,217 5.7 -7.1°
Drops below altitude 10° 23:35:32 10° 340° (NNW) 1,444 5.6 -7.4°
Enters shadow 23:38:08 - 5° (N) 2,243 6.4 -7.8°
